534  
AXUS43 KGID 081803  
MISGRI  
 
GID CWA HOURLY WEATHER ROUNDUP  
NATIONAL WEATHER SERVICE HASTINGS NE  
1200 PM CST THU DEC 08 2022  
 
NOTE: "FAIR" INDICATES FEW OR NO CLOUDS BELOW 12,000 FEET WITH NO  
SIGNIFICANT WEATHER AND/OR OBSTRUCTIONS TO VISIBILITY.  
   
..SOUTH CENTRAL NEBRASKA
 
 
 
CITY SKY/WX TMP DP RH WIND PRES REMARKS  
GRAND ISLAND CLOUDY 24 21 88 N7 30.14F FOG WCI 16  
KEARNEY LGT SNOW 25 23 92 NE3 30.11F VSB 3/4  
HASTINGS NOT AVBL  
ORD CLOUDY 23 19 85 CALM 30.12F FOG  
YORK FOG 27 25 93 E7 30.14F VSB 3/4 WCI 19  
AURORA FOG 26 25 96 NE3 30.13F VSB 3/4  
LEXINGTON FOG 24 23 96 CALM 30.11S VSB 3/4  
HOLDREGE FOG 24 23 96 CALM 30.08F VSB 1/2  
HEBRON FOG 32 32 99 E6 30.13F VSB 3/4 WCI 27  
   
..NEBRASKA PANHANDLE
 
 
 
CITY SKY/WX TMP DP RH WIND PRES REMARKS  
CHADRON LGT SNOW 29 19 66 SW5 30.09S WCI 24  
ALLIANCE LGT SNOW 30 27 88 NW23G30 30.00F FOG WCI 17  
SCOTTSBLUFF LGT SNOW 31 27 85 NW12 30.06R VSB 3/4 WCI 22  
SIDNEY CLOUDY 37 31 78 W17G24 30.03S WCI 27  
   
..WESTERN AND NORTH CENTRAL NEBRASKA
 
 
 
CITY SKY/WX TMP DP RH WIND PRES REMARKS  
VALENTINE CLOUDY 28 21 75 SW6 30.09F WCI 22  
AINSWORTH CLOUDY 28 25 88 SW6 30.09F WCI 21  
ONEILL MOSUNNY 29 23 77 CALM 30.13F  
BROKEN BOW FOG 25 22 88 CALM 30.09F VSB 3/4  
IMPERIAL CLOUDY 27 24 89 NW7 30.07F FOG WCI 19  
NORTH PLATTE FRZ RAIN 24 21 88 NW5 30.10F FOG WCI 18  
MCCOOK FOG 23 21 92 NW5 30.11S VSB 3/4 WCI 17  
   
..EASTERN NEBRASKA
 
 
 
CITY SKY/WX TMP DP RH WIND PRES REMARKS  
NORFOLK CLOUDY 26 20 77 CALM 30.17F HAZE  
SO SIOUX CITY CLOUDY 27 22 81 CALM 30.22F  
TEKAMAH CLOUDY 28 21 75 N5 30.21F WCI 23  
COLUMBUS MIX PCPN 25 25 100 CALM 30.18F VSB 3/4  
ALBION CLOUDY 25 24 96 CALM 30.15F FOG  
OMAHA EPPLEY CLOUDY 30 24 78 CALM 30.20F HAZE  
OFFUTT AFB CLOUDY 34 27 75 E3 30.22F FOG  
MILLARD CLOUDY 32 27 83 CALM 30.19F HAZE  
LINCOLN CLOUDY 27 24 89 NE7 30.18F FOG WCI 19  
NEBRASKA CITY FOG 33 32 96 E5 30.18F VSB 3/4 WCI 28  
BEATRICE FOG 33 33 98 E6 30.14F VSB 1 WCI 28  
FALLS CITY CLOUDY 37 35 92 N3 30.17F FOG  
   
..NORTHERN KANSAS
 
 
 
CITY SKY/WX TMP DP RH WIND PRES REMARKS  
GOODLAND N/A N/A N/A N/A MISG 30.04F  
HILL CITY FOG 29 28 96 NW3 30.09F VSB 1/4  
NORTON FOG 27 25 93 NW6 30.13S VSB 1/2 WCI 20  
PHILLIPSBURG CLOUDY 28 28 100 CALM 30.10F VSB 1/4  
OBERLIN CLOUDY 25 25 100 NW5 30.14S FOG WCI 19  
SMITH CENTER FOG 30 30 99 E5 30.10F VSB 1/4 WCI 26  
HAYS LGT RAIN 35 34 96 MISG 30.08F VSB 1/4  
RUSSELL FOG 36 35 96 SE6 30.06F VSB 1/4 WCI 31  
CONCORDIA CLOUDY 34 32 92 E8 30.10F FOG WCI 27  
SALINA CLOUDY 40 38 93 NE5 30.10F FOG  
TOPEKA CLOUDY 46 42 86 E5 30.14F FOG  
 
CLICK HERE TO GO TO PREVIOUS BULLETINS.

The Nexlab NE Page
The Nexlab KS Page Main Text Page